Time,TemperatureF,DewpointF,PressureIn,WindDirection,WindDirectionDegrees,WindSpeedMPH,WindSpeedGustMPH,Humidity,HourlyPrecipIn,Conditions,Clouds,dailyrainin,SoftwareType,DateUTC
2013-03-10 00:01:00,31.0,29.0,29.86,North,355,11.0,19.0,94,0.00,,,0.00,,2013-03-10 06:01:00,
2013-03-10 00:11:00,31.0,29.0,29.86,North,355,11.0,19.0,94,0.00,,,0.00,,2013-03-10 06:11:00,
2013-03-10 00:22:00,31.0,29.0,29.86,NE,42,11.0,20.0,94,0.00,,,0.00,,2013-03-10 06:22:00,
2013-03-10 00:32:00,31.0,29.0,29.86,North,355,12.0,21.0,94,0.00,,,0.00,,2013-03-10 06:32:00,
2013-03-10 00:42:00,31.0,29.0,29.86,North,355,12.0,21.0,94,0.00,,,0.00,,2013-03-10 06:42:00,
2013-03-10 00:51:00,30.0,28.0,29.87,NNE,19,11.0,27.0,94,0.00,,,0.00,,2013-03-10 06:51:00,
2013-03-10 01:02:00,30.0,29.0,29.87,North,355,10.0,21.0,95,0.00,,,0.00,,2013-03-10 07:02:00,
2013-03-10 01:11:00,30.0,29.0,29.87,North,355,10.0,21.0,95,0.00,,,0.00,,2013-03-10 07:11:00,
2013-03-10 01:21:00,30.0,29.0,29.88,North,11,11.0,22.0,95,0.00,,,0.00,,2013-03-10 07:21:00,
2013-03-10 01:31:00,30.0,29.0,29.89,North,360,13.0,23.0,95,0.00,,,0.00,,2013-03-10 07:31:00,
2013-03-10 01:42:00,30.0,29.0,29.90,NNE,12,10.0,20.0,95,0.00,,,0.00,,2013-03-10 07:42:00,
2013-03-10 01:52:00,30.0,29.0,29.90,NNE,12,10.0,20.0,95,0.00,,,0.00,,2013-03-10 07:52:00,
2013-03-10 03:01:00,30.0,29.0,29.91,North,9,12.0,22.0,95,0.00,,,0.00,,2013-03-10 08:01:00,
2013-03-10 03:11:00,30.0,29.0,29.91,North,9,12.0,22.0,95,0.00,,,0.00,,2013-03-10 08:11:00,
2013-03-10 03:21:00,29.0,28.0,29.92,NNE,17,12.0,25.0,95,0.00,,,0.00,,2013-03-10 08:21:00,
2013-03-10 03:31:00,29.0,27.0,29.93,North,5,15.0,24.0,94,0.00,,,0.00,,2013-03-10 08:31:00,
2013-03-10 03:42:00,29.0,27.0,29.93,North,5,15.0,24.0,94,0.00,,,0.00,,2013-03-10 08:42:00,
2013-03-10 03:51:00,27.0,26.0,29.94,North,5,13.0,24.0,94,0.00,,,0.00,,2013-03-10 08:51:00,
2013-03-10 04:01:00,27.0,25.0,29.94,NNE,28,15.0,20.0,93,0.00,,,0.00,,2013-03-10 09:01:00,
2013-03-10 04:11:00,27.0,25.0,29.94,NNE,28,15.0,20.0,93,0.00,,,0.00,,2013-03-10 09:11:00,
2013-03-10 04:21:00,27.0,25.0,29.95,NE,36,10.0,20.0,91,0.00,,,0.00,,2013-03-10 09:21:00,
2013-03-10 04:31:00,27.0,24.0,29.95,NE,35,12.0,26.0,89,0.00,,,0.00,,2013-03-10 09:31:00,
2013-03-10 04:41:00,27.0,24.0,29.95,NE,35,12.0,26.0,89,0.00,,,0.00,,2013-03-10 09:41:00,
2013-03-10 04:51:00,27.0,24.0,29.96,North,355,12.0,24.0,87,0.00,,,0.00,,2013-03-10 09:51:00,
2013-03-10 05:01:00,27.0,23.0,29.96,North,5,11.0,20.0,86,0.00,,,0.00,,2013-03-10 10:01:00,
2013-03-10 05:11:00,27.0,23.0,29.96,North,5,11.0,20.0,86,0.00,,,0.00,,2013-03-10 10:11:00,
2013-03-10 05:21:00,27.0,23.0,29.97,NNE,12,11.0,19.0,86,0.00,,,0.00,,2013-03-10 10:21:00,
2013-03-10 05:32:00,27.0,23.0,29.98,NNW,346,11.0,20.0,84,0.00,,,0.00,,2013-03-10 10:32:00,
2013-03-10 05:41:00,27.0,22.0,29.98,North,10,12.0,23.0,82,0.00,,,0.00,,2013-03-10 10:41:00,
2013-03-10 05:52:00,27.0,22.0,29.98,North,10,12.0,23.0,82,0.00,,,0.00,,2013-03-10 10:52:00,
2013-03-10 06:01:00,26.0,21.0,29.99,North,360,10.0,19.0,81,0.00,,,0.00,,2013-03-10 11:01:00,
2013-03-10 06:12:00,26.0,21.0,29.99,North,360,10.0,19.0,81,0.00,,,0.00,,2013-03-10 11:12:00,
2013-03-10 06:21:00,26.0,21.0,29.99,NNE,15,11.0,22.0,81,0.00,,,0.00,,2013-03-10 11:21:00,
2013-03-10 06:32:00,25.0,20.0,30.01,NNE,16,13.0,19.0,81,0.00,,,0.00,,2013-03-10 11:32:00,
2013-03-10 06:42:00,25.0,20.0,30.01,NNE,16,13.0,19.0,81,0.00,,,0.00,,2013-03-10 11:42:00,
2013-03-10 06:52:00,25.0,20.0,30.01,North,10,12.0,20.0,81,0.00,,,0.00,,2013-03-10 11:52:00,
2013-03-10 07:01:00,24.0,19.0,30.02,North,5,10.0,23.0,82,0.00,,,0.00,,2013-03-10 12:01:00,
2013-03-10 07:11:00,24.0,19.0,30.02,North,5,10.0,23.0,82,0.00,,,0.00,,2013-03-10 12:11:00,
2013-03-10 07:21:00,24.0,19.0,30.03,NNE,12,14.0,22.0,81,0.00,,,0.00,,2013-03-10 12:21:00,
2013-03-10 07:31:00,23.0,18.0,30.03,North,5,12.0,26.0,81,0.00,,,0.00,,2013-03-10 12:31:00,
2013-03-10 07:42:00,23.0,18.0,30.03,North,5,12.0,26.0,81,0.00,,,0.00,,2013-03-10 12:42:00,
2013-03-10 07:51:00,23.0,18.0,30.03,NNW,335,12.0,23.0,82,0.00,,,0.00,,2013-03-10 12:51:00,
2013-03-10 08:01:00,22.0,17.0,30.04,NNE,15,11.0,18.0,82,0.00,,,0.00,,2013-03-10 13:01:00,
2013-03-10 08:11:00,22.0,17.0,30.04,NNE,15,11.0,18.0,82,0.00,,,0.00,,2013-03-10 13:11:00,
2013-03-10 08:21:00,22.0,17.0,30.06,NNE,23,12.0,19.0,81,0.00,,,0.00,,2013-03-10 13:21:00,
2013-03-10 08:31:00,21.0,16.0,30.06,North,5,11.0,18.0,80,0.00,,,0.00,,2013-03-10 13:31:00,
2013-03-10 08:41:00,21.0,16.0,30.06,North,5,11.0,18.0,80,0.00,,,0.00,,2013-03-10 13:41:00,
2013-03-10 08:52:00,21.0,16.0,30.06,North,360,9.0,16.0,81,0.00,,,0.00,,2013-03-10 13:52:00,
2013-03-10 09:01:00,21.0,16.0,30.07,North,5,10.0,21.0,82,0.00,,,0.00,,2013-03-10 14:01:00,
2013-03-10 09:11:00,21.0,16.0,30.07,North,5,10.0,21.0,82,0.00,,,0.00,,2013-03-10 14:11:00,
2013-03-10 09:21:00,21.0,16.0,30.08,NNE,19,12.0,23.0,81,0.00,,,0.00,,2013-03-10 14:21:00,
2013-03-10 09:32:00,21.0,16.0,30.09,North,350,11.0,22.0,81,0.00,,,0.00,,2013-03-10 14:32:00,
2013-03-10 09:41:00,21.0,16.0,30.09,North,350,11.0,22.0,81,0.00,,,0.00,,2013-03-10 14:41:00,
2013-03-10 09:51:00,21.0,16.0,30.09,NNE,14,11.0,22.0,82,0.00,,,0.00,,2013-03-10 14:51:00,
2013-03-10 10:01:00,21.0,16.0,30.10,NNW,338,12.0,20.0,82,0.00,,,0.00,,2013-03-10 15:01:00,
2013-03-10 10:11:00,21.0,16.0,30.10,NNW,338,12.0,20.0,82,0.00,,,0.00,,2013-03-10 15:11:00,
2013-03-10 10:21:00,21.0,16.0,30.11,North,355,11.0,22.0,81,0.00,,,0.00,,2013-03-10 15:21:00,
2013-03-10 10:32:00,21.0,16.0,30.13,NNE,12,12.0,20.0,81,0.00,,,0.00,,2013-03-10 15:32:00,
2013-03-10 10:42:00,21.0,16.0,30.13,NNE,12,12.0,20.0,81,0.00,,,0.00,,2013-03-10 15:42:00,
2013-03-10 10:51:00,21.0,16.0,30.13,North,10,10.0,18.0,82,0.00,,,0.00,,2013-03-10 15:51:00,
2013-03-10 11:01:00,21.0,16.0,30.12,North,355,11.0,25.0,81,0.00,,,0.00,,2013-03-10 16:01:00,
2013-03-10 11:12:00,21.0,16.0,30.12,North,355,11.0,25.0,81,0.00,,,0.00,,2013-03-10 16:12:00,
2013-03-10 11:21:00,21.0,16.0,30.14,NNE,14,10.0,18.0,82,0.00,,,0.00,,2013-03-10 16:21:00,
2013-03-10 11:32:00,21.0,16.0,30.14,NNE,12,11.0,20.0,80,0.00,,,0.00,,2013-03-10 16:32:00,
2013-03-10 11:41:00,21.0,16.0,30.14,NNE,12,11.0,20.0,80,0.00,,,0.00,,2013-03-10 16:41:00,
2013-03-10 11:51:00,21.0,16.0,30.14,NNE,23,10.0,23.0,80,0.00,,,0.00,,2013-03-10 16:51:00,
2013-03-10 12:01:00,21.0,16.0,30.14,NNE,23,10.0,23.0,80,0.00,,,0.00,,2013-03-10 17:01:00,
2013-03-10 12:11:00,21.0,16.0,30.14,NNE,23,10.0,23.0,80,0.00,,,0.00,,2013-03-10 17:11:00,
2013-03-10 12:21:00,22.0,17.0,30.14,NNE,18,11.0,17.0,80,0.00,,,0.00,,2013-03-10 17:21:00,
2013-03-10 12:31:00,23.0,17.0,30.15,North,350,12.0,21.0,78,0.00,,,0.00,,2013-03-10 17:31:00,
2013-03-10 12:41:00,23.0,17.0,30.15,North,350,12.0,21.0,78,0.00,,,0.00,,2013-03-10 17:41:00,
2013-03-10 12:51:00,23.0,17.0,30.15,North,360,14.0,23.0,76,0.00,,,0.00,,2013-03-10 17:51:00,
2013-03-10 13:01:00,23.0,18.0,30.14,NNE,13,11.0,20.0,80,0.00,,,0.00,,2013-03-10 18:01:00,
2013-03-10 13:11:00,23.0,18.0,30.14,NNE,13,11.0,20.0,80,0.00,,,0.00,,2013-03-10 18:11:00,
2013-03-10 13:21:00,24.0,18.0,30.15,NNW,344,11.0,19.0,77,0.00,,,0.00,,2013-03-10 18:21:00,
2013-03-10 13:32:00,24.0,17.0,30.15,North,5,12.0,19.0,75,0.00,,,0.00,,2013-03-10 18:32:00,
2013-03-10 13:42:00,24.0,17.0,30.15,North,5,12.0,19.0,75,0.00,,,0.00,,2013-03-10 18:42:00,
2013-03-10 13:52:00,24.0,18.0,30.15,NNW,340,13.0,19.0,76,0.00,,,0.00,,2013-03-10 18:52:00,
2013-03-10 14:01:00,25.0,19.0,30.15,NNW,346,10.0,22.0,76,0.00,,,0.00,,2013-03-10 19:01:00,
2013-03-10 14:11:00,25.0,19.0,30.15,NNW,346,10.0,22.0,76,0.00,,,0.00,,2013-03-10 19:11:00,
2013-03-10 14:21:00,25.0,18.0,30.14,North,350,12.0,19.0,74,0.00,,,0.00,,2013-03-10 19:21:00,
2013-03-10 14:32:00,26.0,19.0,30.14,North,5,11.0,21.0,76,0.00,,,0.00,,2013-03-10 19:32:00,
2013-03-10 14:42:00,26.0,19.0,30.14,North,5,11.0,21.0,76,0.00,,,0.00,,2013-03-10 19:42:00,
2013-03-10 14:52:00,27.0,21.0,30.14,North,9,10.0,20.0,77,0.00,,,0.00,,2013-03-10 19:52:00,
2013-03-10 15:02:00,26.0,19.0,30.14,North,5,13.0,20.0,73,0.00,,,0.00,,2013-03-10 20:02:00,
2013-03-10 15:12:00,26.0,19.0,30.14,North,5,13.0,20.0,73,0.00,,,0.00,,2013-03-10 20:12:00,
2013-03-10 15:22:00,26.0,19.0,30.13,NNW,328,12.0,21.0,74,0.00,,,0.00,,2013-03-10 20:22:00,
2013-03-10 15:32:00,27.0,19.0,30.13,NNE,29,13.0,21.0,72,0.00,,,0.00,,2013-03-10 20:32:00,
2013-03-10 15:42:00,27.0,19.0,30.13,NNE,29,13.0,21.0,72,0.00,,,0.00,,2013-03-10 20:42:00,
2013-03-10 15:52:00,27.0,19.0,30.13,NNE,19,12.0,21.0,71,0.00,,,0.00,,2013-03-10 20:52:00,
2013-03-10 16:02:00,27.0,19.0,30.13,NNE,19,12.0,21.0,71,0.00,,,0.00,,2013-03-10 21:02:00,
2013-03-10 16:12:00,27.0,19.0,30.13,NNE,19,12.0,21.0,71,0.00,,,0.00,,2013-03-10 21:12:00,
2013-03-10 16:23:00,28.0,20.0,30.14,NNE,14,10.0,20.0,72,0.00,,,0.00,,2013-03-10 21:23:00,
2013-03-10 16:32:00,27.0,18.0,30.14,NNE,14,11.0,21.0,69,0.00,,,0.00,,2013-03-10 21:32:00,
2013-03-10 16:42:00,27.0,18.0,30.14,NNE,14,11.0,21.0,69,0.00,,,0.00,,2013-03-10 21:42:00,
2013-03-10 16:52:00,27.0,19.0,30.14,North,11,10.0,18.0,71,0.00,,,0.00,,2013-03-10 21:52:00,
2013-03-10 17:02:00,27.0,18.0,30.14,North,5,11.0,19.0,69,0.00,,,0.00,,2013-03-10 22:02:00,
2013-03-10 17:12:00,27.0,18.0,30.14,North,5,11.0,19.0,69,0.00,,,0.00,,2013-03-10 22:12:00,
2013-03-10 17:22:00,27.0,18.0,30.14,North,5,10.0,18.0,69,0.00,,,0.00,,2013-03-10 22:22:00,
2013-03-10 17:32:00,28.0,19.0,30.13,North,5,10.0,22.0,68,0.00,,,0.00,,2013-03-10 22:32:00,
2013-03-10 17:42:00,28.0,19.0,30.13,North,5,10.0,22.0,68,0.00,,,0.00,,2013-03-10 22:42:00,
2013-03-10 17:52:00,28.0,20.0,30.13,NNE,14,10.0,19.0,70,0.00,,,0.00,,2013-03-10 22:52:00,
2013-03-10 18:03:00,28.0,19.0,30.13,North,360,10.0,20.0,68,0.00,,,0.00,,2013-03-10 23:03:00,
2013-03-10 18:12:00,28.0,19.0,30.13,North,360,10.0,20.0,68,0.00,,,0.00,,2013-03-10 23:12:00,
2013-03-10 18:23:00,28.0,19.0,30.12,NNE,28,12.0,19.0,68,0.00,,,0.00,,2013-03-10 23:23:00,
2013-03-10 18:32:00,28.0,19.0,30.12,North,11,11.0,19.0,69,0.00,,,0.00,,2013-03-10 23:32:00,
2013-03-10 18:42:00,28.0,19.0,30.12,North,11,11.0,19.0,69,0.00,,,0.00,,2013-03-10 23:42:00,
2013-03-10 18:52:00,27.0,18.0,30.11,NE,38,10.0,17.0,69,0.00,,,0.00,,2013-03-10 23:52:00,
2013-03-10 19:02:00,27.0,19.0,30.11,North,351,15.0,27.0,70,0.00,,,0.00,,2013-03-11 00:02:00,
2013-03-10 19:12:00,27.0,19.0,30.11,North,351,15.0,27.0,70,0.00,,,0.00,,2013-03-11 00:12:00,
2013-03-10 19:23:00,27.0,19.0,30.12,North,5,9.0,17.0,70,0.00,,,0.00,,2013-03-11 00:23:00,
2013-03-10 19:33:00,27.0,19.0,30.12,North,355,11.0,18.0,70,0.00,,,0.00,,2013-03-11 00:33:00,
2013-03-10 19:43:00,27.0,19.0,30.12,North,355,11.0,18.0,70,0.00,,,0.00,,2013-03-11 00:43:00,
2013-03-10 19:52:00,26.0,18.0,30.12,NNE,30,6.0,13.0,72,0.00,,,0.00,,2013-03-11 00:52:00,
2013-03-10 20:02:00,25.0,18.0,30.12,North,360,5.0,12.0,73,0.00,,,0.00,,2013-03-11 01:02:00,
2013-03-10 20:13:00,25.0,18.0,30.12,North,360,5.0,12.0,73,0.00,,,0.00,,2013-03-11 01:13:00,
2013-03-10 20:23:00,25.0,18.0,30.12,North,5,4.0,8.0,74,0.00,,,0.00,,2013-03-11 01:23:00,
2013-03-10 20:32:00,24.0,17.0,30.12,North,5,4.0,8.0,75,0.00,,,0.00,,2013-03-11 01:32:00,
2013-03-10 20:42:00,24.0,17.0,30.12,North,5,4.0,8.0,75,0.00,,,0.00,,2013-03-11 01:42:00,
2013-03-10 20:52:00,24.0,18.0,30.12,NNW,343,5.0,10.0,76,0.00,,,0.00,,2013-03-11 01:52:00,
2013-03-10 21:02:00,23.0,17.0,30.12,NNE,17,4.0,8.0,76,0.00,,,0.00,,2013-03-11 02:02:00,
2013-03-10 21:12:00,23.0,17.0,30.12,NNE,17,4.0,8.0,76,0.00,,,0.00,,2013-03-11 02:12:00,
2013-03-10 21:22:00,23.0,17.0,30.12,NNW,348,4.0,10.0,77,0.00,,,0.00,,2013-03-11 02:22:00,
2013-03-10 21:32:00,22.0,16.0,30.12,North,351,5.0,10.0,78,0.00,,,0.00,,2013-03-11 02:32:00,
2013-03-10 21:42:00,22.0,16.0,30.12,North,351,5.0,10.0,78,0.00,,,0.00,,2013-03-11 02:42:00,
2013-03-10 21:52:00,22.0,16.0,30.12,North,360,3.0,8.0,79,0.00,,,0.00,,2013-03-11 02:52:00,
2013-03-10 22:02:00,21.0,16.0,30.12,North,350,4.0,8.0,80,0.00,,,0.00,,2013-03-11 03:02:00,
2013-03-10 22:12:00,21.0,16.0,30.12,North,350,4.0,8.0,80,0.00,,,0.00,,2013-03-11 03:12:00,
2013-03-10 22:22:00,20.0,15.0,30.12,NNW,329,2.0,5.0,81,0.00,,,0.00,,2013-03-11 03:22:00,
2013-03-10 22:32:00,19.0,15.0,30.12,NNE,22,4.0,9.0,83,0.00,,,0.00,,2013-03-11 03:32:00,
2013-03-10 22:42:00,19.0,15.0,30.12,NNE,22,4.0,9.0,83,0.00,,,0.00,,2013-03-11 03:42:00,
2013-03-10 22:52:00,19.0,15.0,30.12,NW,321,3.0,7.0,83,0.00,,,0.00,,2013-03-11 03:52:00,
2013-03-10 23:02:00,19.0,15.0,30.12,North,349,4.0,9.0,83,0.00,,,0.00,,2013-03-11 04:02:00,
2013-03-10 23:12:00,19.0,15.0,30.12,North,349,4.0,9.0,83,0.00,,,0.00,,2013-03-11 04:12:00,
2013-03-10 23:22:00,19.0,15.0,30.11,North,5,3.0,7.0,84,0.00,,,0.00,,2013-03-11 04:22:00,
2013-03-10 23:32:00,18.0,14.0,30.10,North,351,1.0,4.0,85,0.00,,,0.00,,2013-03-11 04:32:00,
2013-03-10 23:42:00,18.0,14.0,30.10,North,351,1.0,4.0,85,0.00,,,0.00,,2013-03-11 04:42:00,
2013-03-10 23:52:00,17.0,13.0,30.11,WNW,292,0.0,6.0,84,0.00,,,0.00,,2013-03-11 04:52:00,